COSMOS 1275 DEB, 12672

Orbit data source: Space-Track

COSMOS 1275 DEB, 12672 is space debris in LEO originally from a launch on Thu, 04 Jun 1981 UTC launched from the Plesetsk Missile And Space Complex (PKMTR). Debris objects in space refer to the collection of defunct objects orbiting the Earth. Examples of debris include non-operational satellites, rocket bodies, and fragments generated from explosions, collisions, or faulty payload assembly.

Loading next visibility...
Identifier
12672, 1981-053AC
Orbit
LEO
Country
Flag of CISCIS
Related business
Manufacturer
Unknown
Mission
Spacecraft
Bus & Motor
Unknown
Mass
Unknown
Launch date (UTC)
1981-06-04 (44 years ago)
Launch vehicle
Unknown
Launch site
Plesetsk Missile And Space Complex (PKMTR)
Object type
Payload
Rocket body
Debris
Shape & HBR
Unknown shape, 0.3 m
Radar Cross Section
Medium (>0.1 m² and <1 m²)

Expand to show TLE details & history
Last TLE update: 12 hours ago

TLE from 12 hours ago
0 COSMOS 1275 DEB
1 12672U 81053AC  25293.63180366  .00000751  00000-0  66322-3 0  9994
2 12672  82.9453 350.3849 0025902 214.2265 298.9198 13.83771101225279
Epoch: 2025-10-20T15:09Z
TLE epoch observation values (Epoch: 2025-10-20T15:09:47.836Z)
Latitude
26.92901°
Longitude
-89.98106°
Altitude
944.688 km
Speed
7.386 km/s
True Right ascension
11h 07m 11s
True Declination
26° 47' 38"
Sunlit
Object was in daylight at epoch
Visualization orbit readout
Latitude
Unknown
Longitude
Unknown
Altitude
Unknown
Speed
Unknown
Apparent Right ascension
Unknown
Apparent Declination
Unknown
Sunlit
N/A
Visualization observer readout
Local Sidereal Time
22:14:49
Azimuth
Unknown
Elevation
Unknown
Doppler factor
Unknown
Orbital elements
Apogee altitude
966.653 km
Perigee altitude
928.703 km
Semi-major axis
7,325.815 km
Eccentricity
0.00259
Inclination
82.9453°
RAAN
350.3849°
Arg. of periapsis
214.2265°
True anomaly
298.65959°
Mean anomaly
298.9198°
Eccentric anomaly
298.78974°
Mean motion
3.46146 °/min
Orbital period
104 mins
BSTAR
0.00066322
Loading maneuver chart data...
Computing Atmospheric mass density...
Loading historical data...
Loading historical data...
Loading historical data...
Loading historical data...
Loading historical data...
Loading historical data...
Loading historical data...

Documentation

Showing up to 5 results
|